Location: *
(46.3500°N, 10.9000°E)
Time: 22:22:57
(UTC+00:00)

A-11 Canister half - Pass Details

Date: 22 April 2021
Orbit: 1526 x 1682 km, 47.3° (Epoch: 13 May)

Event Time Altitude Azimuth Distance (km) Brightness Sun altitude
Rises 12:33:52 0° 203° (SSW) 4,814 12.2 52.2°
Reaches altitude 10° 12:37:20 10° 194° (SSW) 3,853 11.9 51.8°
Maximum altitude 12:45:49 34° 135° (SE) 2,489 10.6 51.0°
Drops below altitude 10° 12:54:28 10° 75° (ENE) 3,943 10.9 50.1°
Sets 12:58:02 0° 67° (ENE) 4,940 11.3 49.7°
